TimeCDT,TemperatureF,Dew PointF,Humidity,Sea Level PressureIn,VisibilityMPH,Wind Direction,Wind SpeedMPH,Gust SpeedMPH,PrecipitationIn,Events,Conditions,WindDirDegrees,DateUTC
12:53 AM,70.0,66.0,87,29.79,10.0,South,6.9,-,N/A,,Clear,170,2012-03-31 05:53:00
1:53 AM,69.1,66.0,90,29.78,10.0,SSE,6.9,-,N/A,,Clear,160,2012-03-31 06:53:00
2:53 AM,69.1,66.0,90,29.77,10.0,SSE,5.8,-,N/A,,Clear,160,2012-03-31 07:53:00
3:53 AM,68.0,64.9,90,29.76,10.0,SSE,6.9,-,N/A,,Clear,160,2012-03-31 08:53:00
4:53 AM,66.9,64.9,93,29.75,9.0,SSE,5.8,-,N/A,,Clear,160,2012-03-31 09:53:00
5:53 AM,64.9,64.0,97,29.76,8.0,SE,5.8,-,N/A,,Partly Cloudy,140,2012-03-31 10:53:00
6:30 AM,64.4,64.4,100,29.79,7.0,SE,3.5,-,N/A,,Scattered Clouds,130,2012-03-31 11:30:00
6:53 AM,64.0,63.0,96,29.79,6.0,SE,5.8,-,N/A,,Mostly Cloudy,140,2012-03-31 11:53:00
7:31 AM,64.4,64.4,100,29.83,4.0,ESE,5.8,-,N/A,,Mostly Cloudy,110,2012-03-31 12:31:00
7:40 AM,64.4,64.4,100,29.83,4.0,ESE,5.8,-,N/A,,Mostly Cloudy,120,2012-03-31 12:40:00
7:53 AM,64.9,64.0,97,29.82,4.0,ESE,5.8,-,N/A,,Mostly Cloudy,120,2012-03-31 12:53:00
8:00 AM,64.4,64.4,100,29.84,4.0,ESE,6.9,-,N/A,,Mostly Cloudy,110,2012-03-31 13:00:00
8:09 AM,66.2,64.4,94,29.84,4.0,ESE,6.9,-,N/A,,Overcast,120,2012-03-31 13:09:00
8:53 AM,66.9,66.0,97,29.83,4.0,South,10.4,-,N/A,,Overcast,170,2012-03-31 13:53:00
9:53 AM,69.1,66.0,90,29.82,6.0,South,11.5,-,N/A,,Mostly Cloudy,170,2012-03-31 14:53:00
10:44 AM,71.6,66.2,83,29.84,6.0,South,9.2,-,N/A,,Haze,180,2012-03-31 15:44:00
10:53 AM,71.1,66.0,84,29.83,6.0,SSW,12.7,-,N/A,,Haze,200,2012-03-31 15:53:00
11:53 AM,73.9,66.9,79,29.82,7.0,South,12.7,-,N/A,,Mostly Cloudy,170,2012-03-31 16:53:00
12:22 PM,75.2,68.0,78,29.83,9.0,South,11.5,-,N/A,,Mostly Cloudy,190,2012-03-31 17:22:00
12:53 PM,77.0,68.0,74,29.80,10.0,SSE,8.1,-,N/A,,Mostly Cloudy,160,2012-03-31 17:53:00
1:53 PM,80.1,68.0,67,29.78,10.0,South,9.2,-,N/A,,Scattered Clouds,170,2012-03-31 18:53:00
2:53 PM,80.1,66.0,62,29.76,10.0,SSW,4.6,-,N/A,,Scattered Clouds,200,2012-03-31 19:53:00
3:53 PM,82.0,66.9,60,29.75,10.0,South,9.2,-,N/A,,Scattered Clouds,180,2012-03-31 20:53:00
4:53 PM,82.0,66.9,60,29.74,10.0,South,8.1,-,N/A,,Scattered Clouds,180,2012-03-31 21:53:00
5:53 PM,81.0,68.0,65,29.74,10.0,South,10.4,-,N/A,,Partly Cloudy,190,2012-03-31 22:53:00
6:53 PM,79.0,68.0,69,29.75,10.0,South,9.2,-,N/A,,Partly Cloudy,180,2012-03-31 23:53:00
7:53 PM,75.9,66.0,71,29.75,10.0,South,8.1,-,N/A,,Partly Cloudy,170,2012-04-01 00:53:00
8:53 PM,75.0,66.0,73,29.76,10.0,SSE,4.6,-,N/A,,Partly Cloudy,150,2012-04-01 01:53:00
9:53 PM,72.0,66.0,81,29.78,10.0,SE,5.8,-,N/A,,Clear,130,2012-04-01 02:53:00
10:53 PM,73.0,68.0,84,29.78,10.0,SSE,8.1,-,N/A,,Clear,150,2012-04-01 03:53:00
11:53 PM,73.9,68.0,82,29.77,10.0,South,10.4,-,N/A,,Clear,170,2012-04-01 04:53:00